Location: Ozark
(37.5425°N, 88.7628°W)
Time: 11:34:43
(UTC+00:00)

STARLINK-60 - Pass Details

Date: 26 January 2020
Orbit: 406 x 415 km, 53.0° (Epoch: 23 February)

Event Time Altitude Azimuth Distance (km) Brightness Sun altitude
Exits shadow 12:04:31 17° 313° (NW) 1,169 4.8 -11.9°
Maximum altitude 12:07:03 87° 41° (NE) 425 3.0 -11.4°
Drops below altitude 10° 12:10:26 10° 132° (SE) 1,500 6.9 -10.7°
Sets 12:12:31 0° 133° (SE) 2,362 8.1 -10.3°
